Terminal Aerodrome Forecast
Issued by NWS Midland/Odessa, TX

Home | Current Version | Previous Version | Text Only | Print | Product List | Glossary On
Versions: 1 2 3 4 5 6 7 8 9 10 11 12 13 14 15 16 17 18 19 20 21 22 23 24 25 26 27
000
FTUS44 KMAF 030253 AAD
TAFMAF
TAF AMD
KMAF 030253Z 0303/0324 16011KT P6SM FEW090 SCT200
      TEMPO 0303/0305 VRB20G30KT 5SM TSRA BKN080CB=

USA.gov is the U.S. government's official web portal to all federal, state and local government web resources and services.